Change the Weather History Date:

Wednesday, February 12, 2014

  Actual Average Record
Temperature  
Mean Temperature 4 °F -  
Max Temperature 8 °F 27 °F 54 °F (1980)
Min Temperature 0 °F 9 °F -19 °F (1990)
Degree Days  
Heating Degree Days 61    
Moisture  
Dew Point -4 °F    
Average Humidity 70    
Maximum Humidity 85    
Minimum Humidity 42    
Precipitation  
Precipitation 0.00 in - - ()
Sea Level Pressure  
Sea Level Pressure 29.16 in    
Wind  
Wind Speed 3 mph (NE)    
Max Wind Speed 9 mph    
Max Gust Speed -    
Visibility 6 miles    
Events Snow    
Averages and records for this station are not official NWS values.
T = Trace of Precipitation, MM = Missing Value Source: NWS Daily Summary

Daily Weather History Graph

Daily Weather History Graph

Search for Another Location

Airport or City:

Trip Planner

Search our weather history database for the weather conditions in past years. The results will help you decide how hot, cold, wet, or windy it might be!

Date:

Astronomy

Feb. 12, 2014 Rise Set
Actual Time 8:48 AM AKST 5:33 PM AKST
Civil Twilight 8:01 AM AKST 6:20 PM AKST
Nautical Twilight 7:09 AM AKST 7:12 PM AKST
Astronomical Twilight 6:19 AM AKST 8:03 PM AKST
Moon 3:44 PM AKST (2/12) 7:26 AM AKST (2/12)
Length of Visible Light 10h 19m
Length of Day
8h 45m
Waxing Gibbous, 96% of the Moon is Illuminated
Feb 12
Waxing Gibbous
Feb 14
Full
Feb 22
Last Quarter
Feb 28
New
Mar 8
First Quarter

Hourly Weather History & Observations

Time (AKST) Temp. Windchill Dew Point Humidity Pressure Visibility Wind Dir Wind Speed Gust Speed Precip Events Conditions
12:53 AM -0.9 °F - -5.1 °F 83% 29.44 in 10.0 mi Calm Calm - N/A   Clear
1:53 AM -0.0 °F - -6.0 °F 76% 29.42 in 10.0 mi Calm Calm - N/A   Overcast
2:53 AM 3.9 °F -3.4 °F -2.0 °F 76% 29.40 in 10.0 mi ENE 3.5 mph - N/A   Overcast
3:53 AM 1.9 °F - -4.0 °F 76% 29.38 in 10.0 mi Calm Calm - N/A   Partly Cloudy
4:53 AM 3.0 °F - -4.0 °F 73% 29.36 in 10.0 mi Calm Calm - N/A   Mostly Cloudy
5:53 AM 1.0 °F -6.7 °F -2.9 °F 83% 29.34 in 10.0 mi ESE 3.5 mph - N/A   Overcast
6:53 AM -0.0 °F -7.9 °F -5.1 °F 79% 29.33 in 10.0 mi East 3.5 mph - N/A   Mostly Cloudy
7:53 AM 1.9 °F - -5.1 °F 72% 29.31 in 10.0 mi Calm Calm - N/A   Overcast
8:53 AM 1.9 °F -7.6 °F -6.0 °F 69% 29.30 in 10.0 mi ESE 4.6 mph - N/A   Mostly Cloudy
9:53 AM 1.9 °F -5.6 °F -5.1 °F 72% 29.30 in 10.0 mi ENE 3.5 mph - N/A   Mostly Cloudy
10:53 AM 3.9 °F - -2.9 °F 73% 29.29 in 10.0 mi Calm Calm - N/A   Mostly Cloudy
11:53 AM 7.0 °F - -6.0 °F 55% 29.27 in 10.0 mi Calm Calm - N/A   Overcast
12:53 PM 8.1 °F - -7.1 °F 50% 29.25 in 10.0 mi Calm Calm - N/A   Partly Cloudy
1:53 PM 8.1 °F 1.4 °F -8.0 °F 48% 29.20 in 10.0 mi South 3.5 mph - N/A   Overcast
2:53 PM 8.1 °F -2.0 °F -7.1 °F 50% 29.17 in 10.0 mi East 5.8 mph - N/A   Overcast
3:53 PM 8.1 °F -2.0 °F -11.0 °F 42% 29.15 in 10.0 mi NNE 5.8 mph - N/A   Overcast
4:29 PM 6.8 °F -3.5 °F -4.0 °F 61% 29.12 in 2.5 mi NNE 5.8 mph - 0.00 in Snow Light Snow
4:53 PM 7.0 °F 0.1 °F -2.0 °F 67% 29.14 in 2.5 mi NNE 3.5 mph - 0.00 in Snow Light Snow
5:00 PM 6.8 °F -3.5 °F -2.2 °F 67% 29.11 in 2.0 mi NNE 5.8 mph - 0.00 in Snow Light Snow
5:11 PM 6.8 °F -3.5 °F -2.2 °F 67% 29.10 in 4.0 mi North 5.8 mph - 0.00 in Snow Light Snow
5:53 PM 6.1 °F -5.6 °F -4.0 °F 63% 29.11 in 4.0 mi North 6.9 mph - 0.00 in Snow Light Snow
6:14 PM 6.8 °F -3.5 °F -2.2 °F 67% 29.08 in 4.0 mi NE 5.8 mph - 0.00 in Snow Light Snow
6:31 PM 6.8 °F - 1.4 °F 79% 29.08 in 4.0 mi Calm Calm - 0.00 in   Overcast
6:53 PM 6.1 °F -4.3 °F -4.0 °F 63% 29.09 in 9.0 mi North 5.8 mph - 0.00 in   Overcast
7:31 PM 5.0 °F -8.1 °F -4.0 °F 66% 29.06 in 2.5 mi NNE 8.1 mph - 0.00 in Snow Light Snow
7:53 PM 5.0 °F -8.1 °F -4.0 °F 66% 29.08 in 2.0 mi NE 8.1 mph - 0.00 in Snow Light Snow
8:40 PM 3.2 °F -11.3 °F -5.8 °F 66% 29.04 in 1.8 mi NE 9.2 mph - 0.00 in Snow Light Snow
8:53 PM 3.9 °F -8.2 °F -2.0 °F 76% 29.06 in 1.2 mi ENE 6.9 mph - 0.00 in Snow Light Snow
9:01 PM 3.2 °F -9.1 °F -2.2 °F 78% 29.04 in 1.0 mi NE 6.9 mph - 0.00 in Snow Light Snow
9:39 PM 3.2 °F -10.3 °F -2.2 °F 78% 29.03 in 1.2 mi NNE 8.1 mph - 0.00 in Snow Light Snow
9:53 PM 3.9 °F -8.2 °F -4.0 °F 70% 29.05 in 1.8 mi NE 6.9 mph - 0.00 in Snow Light Snow
10:10 PM 3.2 °F -7.8 °F -2.2 °F 78% 29.02 in 2.5 mi NE 5.8 mph - 0.00 in Snow Light Snow
10:50 PM 3.2 °F -4.2 °F -2.2 °F 78% 29.02 in 1.8 mi NE 3.5 mph - 0.00 in Snow Light Snow
10:53 PM 3.9 °F -6.9 °F -2.0 °F 76% 29.04 in 1.8 mi NNE 5.8 mph - 0.00 in Snow Light Snow
11:16 PM 3.2 °F -6.2 °F -2.2 °F 78% 29.01 in 2.0 mi NNE 4.6 mph - 0.00 in Snow Light Snow
11:41 PM 3.2 °F -4.2 °F -2.2 °F 78% 29.01 in 2.5 mi ENE 3.5 mph - 0.00 in Snow Light Snow
11:50 PM 3.2 °F - -0.4 °F 85% 29.01 in 3.0 mi Calm Calm - 0.00 in   Haze
11:53 PM 3.9 °F -3.4 °F -0.9 °F 80% 29.03 in 4.0 mi NE 3.5 mph - 0.00 in   Haze